FW8499 Weather Reports


time (UTC)temp
F
wind
direction
speed
knots
gust
knots
rain 1hr
in
rain 24hr
in
rain mn
in
humidity
%
barometer
mb
20260505223905 49 37 1.7 6.1 0.00 0.00 0.00 78 1014.9
20260505223404 49 12 1.7 6.1 0.00 0.00 0.00 77 1014.9
20260505222904 49 32 2.6 6.1 0.00 0.00 0.00 77 1014.8
20260505222404 49 22 0.9 5.2 0.00 0.00 0.00 77 1014.7
20260505221904 49 35 2.6 6.1 0.00 0.00 0.00 76 1014.7
20260505221404 49 39 0.9 8.7 0.00 0.00 0.00 76 1014.8
20260505220904 49 22 4.3 8.7 0.00 0.00 0.00 75 1014.7
20260505215404 50 29 2.6 10.4 0.00 0.00 0.00 74 1014.7
20260505214906 50 59 1.7 7.8 0.00 0.00 0.00 73 1014.8
20260505214405 50 46 2.6 7.8 0.00 0.00 0.00 73 1014.8
20260505213904 50 62 3.5 7.8 0.00 0.00 0.00 73 1014.8
20260505213404 50 30 2.6 6.1 0.00 0.00 0.00 72 1014.8
20260505212404 50 40 2.6 6.1 0.00 0.00 0.00 72 1014.8
20260505211904 50 42 1.7 10.4 0.00 0.00 0.00 71 1014.8
20260505211405 51 53 2.6 10.4 0.00 0.00 0.00 70 1014.9
20260505210404 51 51 4.3 10.4 0.00 0.00 0.00 71 1014.9
20260505205904 51 50 4.3 10.4 0.00 0.00 0.00 73 1014.8
20260505205404 51 77 3.5 10.4 0.00 0.00 0.00 74 1014.7
20260505204904 51 37 2.6 10.4 0.00 0.00 0.00 74 1014.6
20260505204404 52 41 4.3 11.3 0.00 0.00 0.00 73 1014.6
20260505203904 52 32 4.3 11.3 0.00 0.00 0.00 74 1014.5
20260505202905 52 26 2.6 7.8 0.00 0.00 0.00 74 1014.4
20260505202404 52 57 4.3 7.8 0.00 0.00 0.00 74 1014.4
20260505201905 52 49 2.6 7.8 0.00 0.00 0.00 74 1014.3
20260505201405 53 54 3.5 8.7 0.00 0.00 0.00 73 1014.3
20260505200404 53 28 2.6 8.7 0.00 0.00 0.00 74 1014.2
20260505195905 53 25 2.6 7.8 0.00 0.00 0.00 74 1014.2
20260505194904 53 36 2.6 7.8 0.00 0.00 0.00 73 1014.1
20260505194404 53 63 1.7 7.8 0.00 0.00 0.00 73 1014.0
20260505193904 53 33 1.7 11.3 0.00 0.00 0.00 73 1013.8
20260505192904 54 63 4.3 10.4 0.00 0.00 0.00 72 1013.8
20260505192404 54 40 3.5 8.7 0.00 0.00 0.00 72 1013.7
20260505191904 55 38 2.6 8.7 0.00 0.00 0.00 71 1013.6
20260505191404 55 46 3.5 8.7 0.00 0.00 0.00 70 1013.5
20260505190904 55 42 3.5 7.8 0.00 0.00 0.00 71 1013.5
20260505190404 56 48 2.6 10.4 0.00 0.00 0.00 72 1013.4
20260505185905 56 45 2.6 10.4 0.00 0.00 0.00 71 1013.3
20260505185404 56 77 2.6 8.7 0.00 0.00 0.00 70 1013.3
20260505184904 57 69 2.6 10.4 0.00 0.00 0.00 70 1013.3
20260505184405 57 48 4.3 10.4 0.00 0.00 0.00 69 1013.2
20260505183904 57 66 2.6 7.8 0.00 0.00 0.00 69 1013.1
20260505182904 58 63 2.6 7.8 0.00 0.00 0.00 66 1012.9
20260505182403 58 49 1.7 7.8 0.00 0.00 0.00 60 1012.9
20260505181904 58 10 1.7 5.2 0.00 0.00 0.00 59 1012.8
20260505181404 59 12 1.7 7.0 0.00 0.00 0.00 58 1012.8
20260505180903 59 2 1.7 8.7 0.00 0.00 0.00 58 1012.8
20260505180404 59 21 1.7 8.7 0.00 0.00 0.00 58 1012.8
20260505175904 60 8 1.7 7.0 0.00 0.00 0.00 57 1012.7
20260505174904 60 38 2.6 7.8 0.00 0.00 0.00 57 1012.7
20260505174405 61 9 2.6 7.8 0.00 0.00 0.00 56 1012.7
20260505173904 61 8 2.6 8.7 0.00 0.00 0.00 55 1012.8
20260505173404 61 19 2.6 8.7 0.00 0.00 0.00 55 1012.8
20260505172904 62 4 4.3 8.7 0.00 0.00 0.00 54 1012.9
20260505172404 62 3 4.3 8.7 0.00 0.00 0.00 53 1012.8
20260505171904 63 16 4.3 8.7 0.00 0.00 0.00 52 1012.8
20260505165905 63 4 2.6 8.7 0.00 0.00 0.00 55 1012.9
20260505165404 63 27 3.5 10.4 0.00 0.00 0.00 56 1012.9
20260505164905 62 16 3.5 10.4 0.00 0.00 0.00 56 1012.9
20260505164404 62 23 1.7 6.1 0.00 0.00 0.00 56 1012.9
20260505163904 62 18 1.7 10.4 0.00 0.00 0.00 55 1012.8
20260505163404 62 17 2.6 10.4 0.00 0.00 0.00 55 1012.8
20260505162904 62 23 1.7 7.8 0.00 0.00 0.00 55 1012.8
20260505162404 63 22 1.7 7.8 0.00 0.00 0.00 54 1012.8
20260505161904 63 7 2.6 7.8 0.00 0.00 0.00 54 1012.8
20260505161405 64 23 2.6 7.8 0.00 0.00 0.00 53 1012.8
20260505160903 65 21 2.6 7.8 0.00 0.00 0.00 52 1012.8
20260505160404 65 24 2.6 7.8 0.00 0.00 0.00 52 1012.7
20260505152904 63 1 1.7 8.7 0.00 0.00 0.00 58 1012.8
20260505152405 63 15 4.3 8.7 0.00 0.00 0.00 57 1012.8
20260505151904 63 9 1.7 7.0 0.00 0.00 0.00 56 1013.0
20260505151404 63 26 1.7 6.1 0.00 0.00 0.00 58 1012.9
20260505150904 63 65 1.7 6.1 0.00 0.00 0.00 57 1013.0
20260505140403 61 8 3.5 8.7 0.00 0.00 0.00 60 1013.2
20260505124904 63 38 1.7 6.1 0.00 0.00 0.00 59 1013.0
20260505124404 63 20 0.9 6.1 0.00 0.00 0.00 57 1013.0
20260505123904 63 12 1.7 5.2 0.00 0.00 0.00 59 1013.1
20260505122904 63 70 1.7 7.0 0.00 0.00 0.00 58 1013.0
20260505121904 63 4 1.7 7.0 0.00 0.00 0.00 57 1013.0
20260505121404 63 2 0.9 7.0 0.00 0.00 0.00 59 1013.1
20260505120904 63 14 3.5 7.0 0.00 0.00 0.00 58 1013.1
20260505120404 63 4 1.7 5.2 0.00 0.00 0.00 55 1013.1
20260505115404 63 4 1.7 6.1 0.00 0.00 0.00 56 1013.0
20260505114904 63 352 1.7 6.1 0.00 0.00 0.00 57 1013.1
20260505114404 63 0 0.9 6.1 0.00 0.00 0.00 57 1013.2
20260505113904 62 71 0.9 6.1 0.00 0.00 0.00 57 1013.2
20260505113404 63 5 2.6 7.8 0.00 0.00 0.00 57 1013.2
20260505112904 63 39 2.6 7.8 0.00 0.00 0.00 57 1013.3
20260505112404 63 356 0.9 6.1 0.00 0.00 0.00 59 1013.3
20260505111904 63 9 2.6 6.1 0.00 0.00 0.00 61 1013.3
20260505110904 62 4 2.6 7.0 0.00 0.00 0.00 60 1013.4
20260505110405 62 8 2.6 7.0 0.00 0.00 0.00 60 1013.3
20260505101904 60 5 1.7 7.0 0.00 0.00 0.00 63 1013.7
20260505101404 60 0 2.6 6.1 0.00 0.00 0.00 65 1013.7
20260505100904 59 26 2.6 7.8 0.00 0.00 0.00 64 1013.7
20260505100404 59 26 1.7 7.8 0.00 0.00 0.00 63 1013.7
20260505095904 58 12 2.6 5.2 0.00 0.00 0.00 66 1013.8
20260505095404 58 357 0.9 4.3 0.00 0.00 0.00 67 1013.8
20260505094904 58 327 1.7 4.3 0.00 0.00 0.00 67 1013.8
20260505094404 58 0 0.9 5.2 0.00 0.00 0.00 68 1013.8
20260505093904 58 6 1.7 5.2 0.00 0.00 0.00 69 1013.8
20260505093404 57 22 0.9 5.2 0.00 0.00 0.00 69 1013.8
20260505092904 57 38 0.9 7.0 0.00 0.00 0.00 69 1013.9
20260505092404 57 0 2.6 7.0 0.00 0.00 0.00 70 1014.0
20260505091904 57 342 0.9 4.3 0.00 0.00 0.00 69 1013.9
20260505091403 57 350 0.9 4.3 0.00 0.00 0.00 70 1014.0
20260505090904 56 12 0.9 6.1 0.00 0.00 0.00 71 1014.0
20260505090404 56 8 1.7 7.0 0.00 0.00 0.00 72 1014.0
20260505085903 56 353 1.7 7.0 0.00 0.00 0.00 73 1014.0
20260505085404 56 11 0.9 5.2 0.00 0.00 0.00 72 1014.0
20260505084905 55 10 1.7 5.2 0.00 0.00 0.00 71 1014.0
20260505084404 55 350 1.7 6.1 0.00 0.00 0.00 74 1014.1
20260505083904 55 24 0.9 6.1 0.00 0.00 0.00 76 1014.1
20260505082904 54 9 1.7 2.6 0.00 0.00 0.00 76 1014.2
20260505082404 54 319 0.9 4.3 0.00 0.00 0.00 77 1014.2
20260505081903 53 9 0.9 6.1 0.00 0.00 0.00 78 1014.2
20260505081403 53 347 1.7 6.1 0.00 0.00 0.00 79 1014.2
20260505080904 52 355 1.7 6.1 0.00 0.00 0.00 80 1014.3
20260505080404 52 23 1.7 6.1 0.00 0.00 0.00 80 1014.3
20260505075904 51 3 2.6 6.1 0.00 0.00 0.00 80 1014.3
20260505075403 51 19 1.7 6.1 0.00 0.00 0.00 80 1014.2
20260505073904 50 13 1.7 5.2 0.00 0.00 0.00 82 1014.3
20260505073404 50 12 1.7 6.1 0.00 0.00 0.00 83 1014.3
20260505072904 50 16 0.9 6.1 0.00 0.00 0.00 84 1014.3
20260505072404 49 11 1.7 4.3 0.00 0.00 0.00 84 1014.3
20260505071404 49 19 0.9 5.2 0.00 0.00 0.00 85 1014.4
20260505070904 49 13 0.0 5.2 0.00 0.00 0.00 85 1014.5
20260505065904 49 1 1.7 5.2 0.00 0.00 0.00 84 1014.5
20260505065404 49 15 0.9 5.2 0.00 0.00 0.00 85 1014.5
20260505064904 49 10 1.7 2.6 0.00 0.00 0.00 85 1014.5
20260505064404 49 7 1.7 2.6 0.00 0.00 0.00 86 1014.5
20260505063904 49 344 0.9 2.6 0.00 0.00 0.00 86 1014.4
20260505062404 49 8 0.9 2.6 0.00 0.00 0.00 87 1014.4
20260505061904 49 11 0.0 2.6 0.00 0.00 0.00 87 1014.5
20260505061404 49 2 0.0 5.2 0.00 0.00 0.00 86 1014.6
20260505060904 49 9 0.9 5.2 0.00 0.00 0.00 86 1014.6
20260505060404 49 308 0.9 2.6 0.00 0.00 0.00 86 1014.5
20260505055904 49 355 0.9 2.6 0.00 0.00 0.00 86 1014.4
20260505055403 49 1 0.9 2.6 0.00 0.00 0.00 87 1014.5
20260505054904 49 13 0.9 2.6 0.00 0.00 0.00 88 1014.6
20260505054404 49 325 0.9 2.6 0.00 0.00 0.00 89 1014.5
20260505053904 49 0 0.9 2.6 0.00 0.00 0.00 89 1014.5
20260505052903 49 303 0.0 1.7 0.00 0.00 0.00 89 1014.5
20260505052404 49 306 0.0 2.6 0.00 0.00 0.00 90 1014.4
20260505051904 49 324 0.9 2.6 0.00 0.00 0.00 90 1014.4
20260505051403 50 308 0.9 4.3 0.00 0.00 0.00 90 1014.3
20260505050904 50 336 0.9 4.3 0.00 0.00 0.00 90 1014.3
20260505050404 50 291 0.0 2.6 0.00 0.00 0.00 90 1014.3
20260505041404 50 9 0.0 0.9 0.00 0.00 0.00 90 1014.3
20260505040903 50 9 0.0 0.9 0.00 0.00 0.00 90 1014.3
20260505040404 50 9 0.0 0.9 0.00 0.00 0.00 90 1014.2
20260505035404 50 9 0.0 0.9 0.00 0.00 0.00 90 1014.2
20260505034905 50 9 0.0 0.9 0.00 0.00 0.00 90 1014.2
20260505034404 50 9 0.0 0.9 0.00 0.00 0.00 90 1014.2
20260505033903 50 9 0.0 0.0 0.00 0.00 0.00 89 1014.3
20260505033403 50 9 0.0 0.0 0.00 0.00 0.00 89 1014.3
20260505032905 50 9 0.0 0.0 0.00 0.00 0.00 90 1014.4
20260505031904 50 9 0.0 0.9 0.00 0.00 0.00 89 1014.3
20260505031404 50 9 0.0 0.9 0.00 0.00 0.00 89 1014.4
20260505030904 50 9 0.0 0.9 0.00 0.00 0.00 89 1014.4
20260505030404 50 9 0.0 0.9 0.00 0.00 0.00 89 1014.4
20260505025404 50 9 0.0 0.9 0.00 0.00 0.00 89 1014.5
20260505024904 50 9 0.0 0.9 0.00 0.00 0.00 89 1014.5
20260505024403 50 9 0.0 0.9 0.00 0.00 0.00 89 1014.5
20260505023903 50 9 0.0 0.9 0.00 0.00 0.00 90 1014.5
20260505023404 50 9 0.0 0.9 0.00 0.00 0.00 90 1014.5
20260505022904 50 9 0.0 0.9 0.00 0.00 0.00 90 1014.6
20260505022404 50 9 0.0 0.9 0.00 0.00 0.00 90 1014.5
20260505021904 50 9 0.0 0.0 0.00 0.00 0.00 90 1014.5
20260505021404 50 9 0.0 0.0 0.00 0.00 0.00 90 1014.5
20260505020904 50 9 0.0 0.9 0.00 0.00 0.00 90 1014.5
20260505020404 50 9 0.0 1.7 0.00 0.00 0.00 89 1014.6
20260505015903 50 9 0.0 1.7 0.00 0.00 0.00 89 1014.6
20260505015403 50 343 0.0 0.9 0.00 0.00 0.00 89 1014.6
20260505014903 50 329 0.0 1.7 0.00 0.00 0.00 89 1014.7
20260505014404 50 329 0.0 1.7 0.00 0.00 0.00 89 1014.7
20260505013404 50 356 0.0 1.7 0.00 0.00 0.00 89 1014.8
20260505012904 50 348 0.0 1.7 0.00 0.00 0.00 89 1014.8
20260505012404 50 4 0.0 1.7 0.00 0.00 0.00 89 1014.8
20260505011904 50 338 0.0 0.9 0.00 0.00 0.00 89 1014.8
20260505011404 50 338 0.0 0.9 0.00 0.00 0.00 88 1014.8
20260505010904 50 338 0.0 0.9 0.00 0.00 0.00 88 1014.9
20260505010404 50 338 0.0 0.9 0.00 0.00 0.00 88 1014.9
20260505005904 50 358 0.0 1.7 0.00 0.00 0.00 88 1015.0
20260505005404 50 358 0.0 1.7 0.00 0.00 0.00 89 1015.0
20260505004904 50 358 0.0 0.9 0.00 0.00 0.00 89 1014.9
20260505003904 50 358 0.0 1.7 0.00 0.00 0.00 88 1015.1
20260505003405 50 358 0.0 1.7 0.00 0.00 0.00 88 1015.2
20260505002904 50 358 0.0 1.7 0.00 0.00 0.00 89 1015.3
20260505002404 50 358 0.0 0.9 0.00 0.00 0.00 88 1015.3
20260505001904 50 358 0.0 0.9 0.00 0.00 0.00 88 1015.4
20260505001403 50 358 0.0 0.9 0.00 0.00 0.00 88 1015.4
20260505000903 50 358 0.0 0.0 0.00 0.00 0.00 89 1015.4
20260505000405 50 358 0.0 0.0 0.00 0.00 0.00 89 1015.5
20260504235903 50 358 0.0 0.9 0.00 0.00 0.00 89 1015.4
20260504234904 50 358 0.0 0.0 0.00 0.00 0.00 88 1015.5
20260504234404 50 358 0.0 0.9 0.00 0.00 0.00 88 1015.4
20260504233903 50 358 0.0 0.9 0.00 0.00 0.00 88 1015.4
20260504233403 50 358 0.0 0.9 0.00 0.00 0.00 88 1015.4
20260504232904 50 358 0.0 0.9 0.00 0.00 0.00 89 1015.5
20260504231904 50 358 0.0 0.9 0.00 0.00 0.00 88 1015.6
20260504231404 50 358 0.0 0.9 0.00 0.00 0.00 88 1015.5
20260504230904 50 358 0.0 0.9 0.00 0.00 0.00 88 1015.5
20260504230404 50 358 0.0 0.9 0.00 0.00 0.00 88 1015.5
20260504225903 50 358 0.0 0.9 0.00 0.00 0.00 88 1015.5
20260504225404 50 358 0.0 1.7 0.00 0.00 0.00 88 1015.5
20260504224904 50 0 0.0 1.7 0.00 0.00 0.00 87 1015.5
20260504224403 50 30 0.9 1.7 0.00 0.00 0.00 86 1015.5